N5AS KMEM-KOWB

Flight info

Callsign N5AS
Flight time 0h 44m
Altitude 17000
Route KMEM CROSN7 HUMMS KOWP /NO DP/
Aircraft GL7T/L-VGDW/C

Departure

Time 2026-05-04 02:07
Airport Memphis International Airport (KMEM)

Arrival

Time 2026-05-04 02:52
Airport Owensboro Daviess County Airport (KOWB)
Time Latitude Longitude Altitude Speed Heading
2026-05-04 01:52 35.03040 -89.96767 314 ft 0 kts 272°
2026-05-04 02:00 35.03046 -89.96777 314 ft 5 kts 322°
2026-05-04 02:01 35.03119 -89.96812 316 ft 16 kts 329°
2026-05-04 02:01 35.03221 -89.96856 317 ft 16 kts 356°
2026-05-04 02:01 35.03343 -89.96859 316 ft 19 kts
2026-05-04 02:01 35.03475 -89.96857 315 ft 20 kts
2026-05-04 02:02 35.03619 -89.96850 313 ft 22 kts 358°
2026-05-04 02:02 35.03746 -89.96863 310 ft 8 kts 340°
2026-05-04 02:02 35.03787 -89.96898 310 ft 7 kts 312°
2026-05-04 02:02 35.03808 -89.96957 310 ft 9 kts 277°
2026-05-04 02:03 35.03809 -89.97053 311 ft 15 kts 269°
2026-05-04 02:03 35.03807 -89.97138 310 ft 0 kts 269°
2026-05-04 02:03 35.03807 -89.97143 310 ft 0 kts 269°
2026-05-04 02:07 35.03802 -89.97235 310 ft 11 kts 246°
2026-05-04 02:07 35.03600 -89.97270 315 ft 72 kts 179°
2026-05-04 02:07 35.02773 -89.97257 392 ft 158 kts 179°
2026-05-04 02:07 35.01503 -89.97215 1122 ft 210 kts 179°
2026-05-04 02:08 34.99776 -89.97119 1930 ft 276 kts 179°
2026-05-04 02:08 34.97808 -89.96691 3896 ft 304 kts 165°
2026-05-04 02:08 34.95708 -89.95469 4963 ft 375 kts 150°
2026-05-04 02:08 34.93563 -89.93140 4995 ft 429 kts 131°
2026-05-04 02:09 34.92060 -89.90097 5014 ft 413 kts 113°
2026-05-04 02:09 34.91430 -89.86759 4987 ft 400 kts 93°
2026-05-04 02:09 34.91714 -89.83439 4955 ft 392 kts 73°
2026-05-04 02:09 34.92861 -89.80486 4932 ft 383 kts 52°
2026-05-04 02:10 34.94701 -89.78222 4913 ft 373 kts 35°
2026-05-04 02:10 34.96855 -89.76530 4915 ft 365 kts 24°
2026-05-04 02:10 34.99189 -89.75508 5254 ft 348 kts 10°
2026-05-04 02:10 35.00815 -89.75176 5839 ft 373 kts
2026-05-04 02:11 35.03580 -89.75250 6755 ft 410 kts 352°
2026-05-04 02:11 35.06408 -89.75656 7650 ft 410 kts 352°
2026-05-04 02:11 35.10222 -89.75887 8833 ft 424 kts 359°
2026-05-04 02:11 35.12240 -89.75833 9452 ft 434 kts
2026-05-04 02:12 35.15274 -89.75905 10345 ft 439 kts 355°
2026-05-04 02:12 35.18330 -89.76264 11210 ft 443 kts 353°
2026-05-04 02:12 35.21420 -89.76555 12100 ft 448 kts 356°
2026-05-04 02:12 35.24548 -89.76558 13173 ft 451 kts 359°
2026-05-04 02:13 35.27703 -89.76408 14319 ft 457 kts
2026-05-04 02:13 35.30841 -89.75632 15408 ft 461 kts 13°
2026-05-04 02:13 35.33740 -89.74337 16550 ft 440 kts 21°
2026-05-04 02:13 35.36557 -89.72539 17052 ft 468 kts 27°
2026-05-04 02:14 35.39287 -89.70470 17044 ft 460 kts 28°
2026-05-04 02:14 35.42041 -89.68445 17051 ft 457 kts 27°
2026-05-04 02:14 35.44807 -89.66492 17048 ft 463 kts 27°
2026-05-04 02:14 35.47549 -89.64473 17049 ft 460 kts 28°
2026-05-04 02:15 35.50293 -89.62377 17051 ft 470 kts 28°
2026-05-04 02:15 35.53090 -89.60333 17061 ft 477 kts 27°
2026-05-04 02:15 35.55942 -89.58310 17054 ft 465 kts 27°
2026-05-04 02:15 35.58670 -89.56279 17049 ft 455 kts 28°
2026-05-04 02:16 35.61382 -89.54209 17047 ft 459 kts 28°
2026-05-04 02:16 35.64113 -89.52207 17045 ft 459 kts 27°
2026-05-04 02:16 35.66854 -89.50199 17049 ft 457 kts 28°
2026-05-04 02:16 35.69548 -89.48079 17050 ft 462 kts 30°
2026-05-04 02:17 35.72232 -89.45949 17047 ft 460 kts 28°
2026-05-04 02:17 35.74971 -89.43920 17052 ft 457 kts 27°
2026-05-04 02:17 35.77715 -89.41898 17049 ft 462 kts 28°
2026-05-04 02:17 35.80410 -89.39767 17048 ft 460 kts 30°
2026-05-04 02:18 35.83108 -89.37625 17046 ft 460 kts 28°
2026-05-04 02:18 35.85846 -89.35595 17050 ft 461 kts 27°
2026-05-04 02:18 35.88598 -89.33555 17056 ft 460 kts 28°
2026-05-04 02:18 35.91295 -89.31410 17052 ft 464 kts 30°
2026-05-04 02:19 35.93994 -89.29266 17052 ft 460 kts 28°
2026-05-04 02:19 35.96748 -89.27223 17053 ft 462 kts 27°
2026-05-04 02:19 35.99490 -89.25177 17050 ft 462 kts 28°
2026-05-04 02:19 36.02193 -89.23017 17054 ft 462 kts 30°
2026-05-04 02:20 36.04898 -89.20867 17053 ft 463 kts 28°
2026-05-04 02:20 36.07656 -89.18818 17049 ft 460 kts 27°
2026-05-04 02:20 36.10403 -89.16755 17050 ft 465 kts 28°
2026-05-04 02:20 36.13104 -89.14585 17048 ft 462 kts 30°
2026-05-04 02:21 36.15822 -89.12424 17039 ft 464 kts 28°
2026-05-04 02:21 36.18573 -89.10375 17034 ft 463 kts 27°
2026-05-04 02:21 36.21329 -89.08296 17041 ft 463 kts 28°
2026-05-04 02:21 36.24031 -89.06115 17036 ft 466 kts 30°
2026-05-04 02:22 36.26749 -89.03951 17038 ft 462 kts 28°
2026-05-04 02:22 36.29508 -89.01892 17035 ft 465 kts 27°
2026-05-04 02:22 36.32261 -88.99803 17034 ft 464 kts 29°
2026-05-04 02:22 36.34970 -88.97607 17034 ft 465 kts 30°
2026-05-04 02:23 36.37684 -88.95441 17032 ft 464 kts 28°
2026-05-04 02:23 36.40453 -88.93373 17033 ft 463 kts 27°
2026-05-04 02:23 36.43162 -88.91304 17035 ft 466 kts 29°
2026-05-04 02:23 36.45693 -88.88771 17015 ft 469 kts 41°
2026-05-04 02:24 36.47921 -88.85766 17029 ft 475 kts 45°
2026-05-04 02:24 36.50124 -88.82739 17037 ft 472 kts 43°
2026-05-04 02:24 36.52440 -88.79837 17038 ft 471 kts 41°
2026-05-04 02:24 36.54750 -88.76943 17032 ft 474 kts 43°
2026-05-04 02:25 36.56963 -88.73909 17038 ft 472 kts 45°
2026-05-04 02:25 36.59167 -88.70856 17043 ft 475 kts 43°
2026-05-04 02:25 36.61474 -88.67952 17042 ft 472 kts 40°
2026-05-04 02:25 36.63807 -88.65053 17036 ft 473 kts 43°
2026-05-04 02:26 36.66019 -88.62016 17039 ft 476 kts 45°
2026-05-04 02:26 36.68215 -88.58950 17042 ft 472 kts 43°
2026-05-04 02:26 36.70524 -88.56024 17042 ft 474 kts 41°
2026-05-04 02:26 36.72848 -88.53129 17037 ft 474 kts 42°
2026-05-04 02:27 36.75072 -88.50076 17042 ft 474 kts 45°
2026-05-04 02:27 36.77266 -88.46999 17035 ft 476 kts 43°
2026-05-04 02:27 36.79570 -88.44057 17038 ft 472 kts 40°
2026-05-04 02:27 36.81902 -88.41145 17042 ft 476 kts 42°
2026-05-04 02:28 36.84122 -88.38096 17040 ft 475 kts 45°
2026-05-04 02:28 36.86320 -88.34994 16915 ft 477 kts 44°
2026-05-04 02:28 36.88616 -88.32036 16503 ft 472 kts 40°
2026-05-04 02:28 36.90927 -88.29151 16089 ft 468 kts 42°
2026-05-04 02:29 36.93119 -88.26148 15687 ft 467 kts 45°
2026-05-04 02:29 36.95260 -88.23109 15284 ft 464 kts 44°
2026-05-04 02:29 36.97486 -88.20217 14890 ft 459 kts 40°
2026-05-04 02:29 36.99736 -88.17398 14500 ft 457 kts 41°
2026-05-04 02:30 37.01881 -88.14463 14117 ft 456 kts 44°
2026-05-04 02:30 37.03962 -88.11496 13991 ft 451 kts 43°
2026-05-04 02:30 37.06144 -88.08645 13991 ft 451 kts 40°
2026-05-04 02:30 37.08351 -88.05867 13983 ft 454 kts 41°
2026-05-04 02:31 37.10478 -88.02951 13986 ft 452 kts 44°
2026-05-04 02:31 37.12564 -87.99972 13989 ft 454 kts 43°
2026-05-04 02:31 37.14732 -87.97121 13995 ft 453 kts 40°
2026-05-04 02:31 37.16946 -87.94324 13997 ft 450 kts 41°
2026-05-04 02:32 37.19066 -87.91411 13988 ft 456 kts 44°
2026-05-04 02:32 37.21147 -87.88430 13994 ft 454 kts 43°
2026-05-04 02:32 37.23320 -87.85561 13996 ft 450 kts 40°
2026-05-04 02:32 37.25528 -87.82753 13994 ft 455 kts 41°
2026-05-04 02:33 37.27655 -87.79826 13985 ft 454 kts 44°
2026-05-04 02:33 37.29714 -87.76873 13989 ft 453 kts 43°
2026-05-04 02:33 37.31873 -87.74000 13989 ft 454 kts 40°
2026-05-04 02:33 37.34081 -87.71183 13982 ft 452 kts 41°
2026-05-04 02:34 37.36215 -87.68242 13983 ft 454 kts 44°
2026-05-04 02:34 37.38296 -87.65248 13983 ft 457 kts 43°
2026-05-04 02:34 37.40464 -87.62348 13799 ft 455 kts 40°
2026-05-04 02:34 37.42675 -87.59509 13245 ft 453 kts 41°
2026-05-04 02:35 37.44798 -87.56585 12691 ft 452 kts 44°
2026-05-04 02:35 37.46862 -87.53610 12157 ft 450 kts 43°
2026-05-04 02:35 37.48990 -87.50743 11625 ft 445 kts 41°
2026-05-04 02:35 37.51158 -87.47957 10803 ft 447 kts 41°
2026-05-04 02:36 37.53249 -87.45073 9806 ft 444 kts 44°
2026-05-04 02:36 37.55254 -87.42151 8824 ft 438 kts 44°
2026-05-04 02:36 37.57308 -87.39364 7883 ft 430 kts 41°
2026-05-04 02:36 37.59391 -87.36700 6961 ft 424 kts 42°
2026-05-04 02:37 37.61360 -87.33988 6027 ft 407 kts 45°
2026-05-04 02:37 37.63253 -87.31235 5089 ft 418 kts 44°
2026-05-04 02:37 37.65420 -87.29035 4093 ft 411 kts 25°
2026-05-04 02:37 37.68079 -87.27994 4007 ft 386 kts
2026-05-04 02:38 37.70639 -87.27772 4009 ft 357 kts 357°
2026-05-04 02:38 37.73051 -87.27678 4004 ft 334 kts 357°
2026-05-04 02:38 37.75297 -87.27572 3987 ft 314 kts 356°
2026-05-04 02:38 37.77443 -87.27476 3991 ft 305 kts 356°
2026-05-04 02:39 37.79560 -87.27397 3986 ft 305 kts 356°
2026-05-04 02:39 37.81680 -87.27317 3994 ft 305 kts 356°
2026-05-04 02:39 37.83796 -87.27234 3993 ft 305 kts 356°
2026-05-04 02:39 37.85920 -87.27148 3993 ft 305 kts 356°
2026-05-04 02:40 37.88046 -87.27058 3999 ft 306 kts 356°
2026-05-04 02:40 37.90175 -87.26965 3998 ft 306 kts 356°
2026-05-04 02:40 37.92306 -87.26870 3999 ft 307 kts 356°
2026-05-04 02:40 37.94443 -87.26774 3999 ft 307 kts 356°
2026-05-04 02:41 37.96579 -87.26674 3989 ft 307 kts 356°
2026-05-04 02:41 37.98714 -87.26576 3991 ft 308 kts 355°
2026-05-04 02:41 38.00861 -87.26471 3989 ft 309 kts 355°
2026-05-04 02:41 38.03008 -87.26354 3989 ft 309 kts 356°
2026-05-04 02:42 38.05160 -87.26245 3987 ft 310 kts 356°
2026-05-04 02:42 38.07292 -87.26136 3983 ft 311 kts 356°
2026-05-04 02:42 38.09485 -87.26021 3991 ft 311 kts 356°
2026-05-04 02:42 38.11622 -87.25859 3981 ft 316 kts
2026-05-04 02:43 38.13717 -87.24884 3961 ft 328 kts 27°
2026-05-04 02:43 38.15463 -87.22846 3531 ft 349 kts 52°
2026-05-04 02:43 38.16513 -87.20068 3093 ft 361 kts 76°
2026-05-04 02:43 38.16690 -87.16939 2979 ft 350 kts 101°
2026-05-04 02:44 38.15976 -87.14088 2980 ft 331 kts 124°
2026-05-04 02:44 38.14563 -87.11912 2977 ft 312 kts 147°
2026-05-04 02:44 38.12714 -87.10691 2976 ft 293 kts 171°
2026-05-04 02:44 38.10750 -87.10602 2979 ft 277 kts 195°
2026-05-04 02:45 38.08936 -87.11295 2996 ft 270 kts 204°
2026-05-04 02:45 38.07196 -87.12143 2999 ft 267 kts 205°
2026-05-04 02:45 38.05469 -87.13009 3001 ft 266 kts 206°
2026-05-04 02:45 38.03750 -87.13880 2990 ft 266 kts 205°
2026-05-04 02:46 38.02041 -87.14762 2919 ft 266 kts 205°
2026-05-04 02:46 38.00330 -87.15664 2745 ft 260 kts 206°
2026-05-04 02:46 37.98736 -87.16487 2588 ft 235 kts 205°
2026-05-04 02:46 37.97290 -87.17190 2566 ft 214 kts 202°
2026-05-04 02:47 37.95900 -87.17649 2519 ft 201 kts 195°
2026-05-04 02:47 37.94530 -87.17781 2499 ft 194 kts 187°
2026-05-04 02:47 37.93203 -87.17708 2438 ft 189 kts 184°
2026-05-04 02:47 37.91850 -87.17632 2098 ft 194 kts 184°
2026-05-04 02:48 37.90544 -87.17560 2101 ft 182 kts 184°
2026-05-04 02:48 37.89307 -87.17494 2093 ft 174 kts 185°
2026-05-04 02:48 37.88121 -87.17436 2092 ft 167 kts 185°
2026-05-04 02:48 37.86973 -87.17381 2092 ft 163 kts 185°
2026-05-04 02:49 37.85850 -87.17324 2077 ft 160 kts 185°
2026-05-04 02:49 37.84760 -87.17267 2106 ft 152 kts 186°
2026-05-04 02:49 37.83750 -87.17152 2045 ft 136 kts 182°
2026-05-04 02:49 37.82862 -87.17058 2055 ft 116 kts 188°
2026-05-04 02:50 37.82084 -87.17091 2087 ft 119 kts 191°
2026-05-04 02:50 37.81205 -87.17084 2017 ft 127 kts 187°
2026-05-04 02:50 37.80310 -87.17015 1750 ft 131 kts 185°
2026-05-04 02:50 37.79401 -87.16968 1424 ft 133 kts 184°
2026-05-04 02:51 37.78474 -87.16969 1229 ft 134 kts 183°
2026-05-04 02:51 37.77515 -87.16930 1003 ft 141 kts 176°
2026-05-04 02:51 37.76552 -87.16851 811 ft 135 kts 179°
2026-05-04 02:51 37.75657 -87.16827 581 ft 121 kts 178°
2026-05-04 02:52 37.74876 -87.16779 430 ft 104 kts 176°
2026-05-04 02:52 37.74290 -87.16746 413 ft 60 kts 177°
2026-05-04 02:52 37.73989 -87.16734 410 ft 40 kts 178°
2026-05-04 02:52 37.73728 -87.16718 409 ft 36 kts 177°
2026-05-04 02:53 37.73464 -87.16706 408 ft 37 kts 178°
2026-05-04 02:53 37.73208 -87.16692 403 ft 38 kts 175°
2026-05-04 02:53 37.73182 -87.16542 407 ft 23 kts 50°
2026-05-04 02:53 37.73362 -87.16518 405 ft 35 kts 357°
2026-05-04 02:54 37.73602 -87.16531 409 ft 34 kts 358°
2026-05-04 02:54 37.73780 -87.16508 407 ft 20 kts 70°
2026-05-04 02:54 37.73818 -87.16386 410 ft 2 kts 356°
2026-05-04 02:54 37.73819 -87.16386 410 ft 0 kts 356°